Tracking 30743 objects as of 24-Jun-2025
HD Live streaming from Space Station
objects crossing your sky now

CZ-3B R/B

Track CZ-3B R/B now!
10-day predictions


NORAD ID: 41587
Int'l Code: 2016-037B
Perigee: 198.4 km
Apogee: 18,363.0 km
Inclination: 19.3 °
Period: 324.8 minutes
Semi major axis: 15651 km
RCS: Unknown
Launch date: June 12, 2016
Source: People's Republic of China (PRC)
Launch site: Xichang Space Center, China (XSC)

Note: This is a ROCKET BODY
Your satellite tracking list
Your tracking list is empty




NASA's NSSDC Master Catalog

Two Line Element Set (TLE):
1 41587U 16037B   25175.10745342  .00045638 -23329-6  10020-2 0  9995
2 41587  19.3444  74.3028 5802737 327.7149   7.3303  4.43364301 99317
Source of the keplerian elements: AFSPC